Centerville, IA

8:36 AM CDT on May 24, 2017 (GMT -0500)
Centerville Municipal

Weather History for KTVK - January, 2014

Change the Weather History Date:

Tuesday, January 14, 2014

  Actual Average Record
Temperature  
Mean Temperature 28 °F -  
Max Temperature 37 °F 30 °F 66 °F (1952)
Min Temperature 19 °F 13 °F -16 °F (1957)
Degree Days  
Heating Degree Days 37    
Moisture  
Dew Point 21 °F    
Average Humidity 69    
Maximum Humidity 100    
Minimum Humidity 51    
Precipitation  
Precipitation 0.00 in - - ()
Sea Level Pressure  
Sea Level Pressure 29.91 in    
Wind  
Wind Speed 17 mph (West)    
Max Wind Speed 32 mph    
Max Gust Speed 41 mph    
Visibility 10 miles    
Events Rain    
Averages and records for this station are not official NWS values.
T = Trace of Precipitation, MM = Missing Value Source: NWS Daily Summary

Daily Weather History Graph

Daily Weather History Graph

Search for Another Location

Airport or City:

Trip Planner

Search our weather history database for the weather conditions in past years. The results will help you decide how hot, cold, wet, or windy it might be!

Date:

Astronomy

Jan. 14, 2014 Rise Set
Actual Time 7:33 AM CST 5:07 PM CST
Civil Twilight 7:03 AM CST 5:38 PM CST
Nautical Twilight 6:29 AM CST 6:11 PM CST
Astronomical Twilight 5:57 AM CST 6:44 PM CST
Moon 4:13 PM CST (1/14) 6:08 AM CST (1/14)
Length of Visible Light 10h 34m
Length of Day
9h 34m
Waxing Gibbous, 98% of the Moon is Illuminated
Jan 14
Waxing Gibbous
Jan 15
Full
Jan 23
Last Quarter
Jan 30
New
Feb 6
First Quarter

Hourly Weather History & Observations

Time (CST) Temp. Windchill Dew Point Humidity Pressure Visibility Wind Dir Wind Speed Gust Speed Precip Events Conditions
12:15 AM 30.2 °F 23.4 °F 24.8 °F 80% 29.73 in 10.0 mi South 6.9 mph - N/A   Clear
12:35 AM 30.2 °F 23.4 °F 24.8 °F 80% 29.71 in 10.0 mi South 6.9 mph - N/A   Clear
12:55 AM 32.0 °F 24.2 °F 24.8 °F 75% 29.70 in 10.0 mi South 9.2 mph - N/A   Clear
1:15 AM 32.0 °F 23.6 °F 24.8 °F 75% 29.69 in 10.0 mi South 10.4 mph - N/A   Clear
1:35 AM 32.0 °F 24.2 °F 26.6 °F 80% 29.68 in 10.0 mi South 9.2 mph - N/A   Clear
1:55 AM 32.0 °F 24.8 °F 26.6 °F 80% 29.68 in 10.0 mi South 8.1 mph - N/A   Clear
2:35 AM 35.6 °F 26.2 °F 26.6 °F 70% 29.67 in 10.0 mi SSW 15.0 mph 18.4 mph N/A   Scattered Clouds
2:55 AM 35.6 °F 26.2 °F 26.6 °F 70% 29.67 in 10.0 mi SW 15.0 mph - N/A   Scattered Clouds
3:15 AM 35.6 °F 28.0 °F 28.4 °F 75% 29.66 in 10.0 mi SW 10.4 mph - N/A Rain Light Rain
3:35 AM 33.8 °F 25.8 °F 28.4 °F 81% 29.66 in 10.0 mi SSW 10.4 mph - N/A   Partly Cloudy
3:55 AM 33.8 °F 25.3 °F 28.4 °F 81% 29.67 in 10.0 mi SW 11.5 mph - N/A Rain Light Rain
4:15 AM 32.0 °F 23.6 °F 30.2 °F 93% 29.65 in 10.0 mi SSW 10.4 mph - N/A Rain Light Rain
4:35 AM 32.0 °F 23.6 °F 32.0 °F 100% 29.65 in 10.0 mi SSW 10.4 mph - N/A   Overcast
4:55 AM 33.8 °F 25.8 °F 32.0 °F 93% 29.66 in 10.0 mi SW 10.4 mph - N/A Rain Light Rain
5:15 AM 33.8 °F 24.3 °F 32.0 °F 93% 29.66 in 10.0 mi SW 13.8 mph - N/A   Partly Cloudy
5:35 AM 35.6 °F 27.5 °F 32.0 °F 87% 29.67 in 10.0 mi WSW 11.5 mph - N/A   Mostly Cloudy
5:55 AM 35.6 °F 26.6 °F 32.0 °F 87% 29.68 in 10.0 mi West 13.8 mph - N/A Rain Light Rain
6:15 AM 35.6 °F 26.6 °F 32.0 °F 87% 29.69 in 10.0 mi West 13.8 mph - N/A   Scattered Clouds
6:35 AM 37.4 °F 27.5 °F 33.8 °F 87% 29.71 in 10.0 mi West 18.4 mph 27.6 mph N/A   Mostly Cloudy
6:55 AM 37.4 °F 27.2 °F 33.8 °F 87% 29.73 in 10.0 mi WNW 19.6 mph 26.5 mph N/A   Overcast
7:15 AM 37.4 °F 25.0 °F 30.2 °F 75% 29.74 in 10.0 mi WNW 29.9 mph 41.4 mph N/A   Mostly Cloudy
7:35 AM 35.6 °F 24.8 °F 28.4 °F 75% 29.77 in 10.0 mi WNW 19.6 mph 32.2 mph N/A   Partly Cloudy
7:55 AM 35.6 °F 24.0 °F 28.4 °F 75% 29.78 in 10.0 mi WNW 23.0 mph 34.5 mph N/A   Partly Cloudy
8:15 AM 35.6 °F 24.2 °F 28.4 °F 75% 29.80 in 10.0 mi WNW 21.9 mph 29.9 mph N/A   Clear
8:35 AM 35.6 °F 22.3 °F 26.6 °F 70% 29.81 in 10.0 mi WNW 31.1 mph 35.7 mph N/A   Clear
8:55 AM 35.6 °F 24.5 °F 26.6 °F 70% 29.83 in 10.0 mi NW 20.7 mph 32.2 mph N/A   Clear
9:15 AM 33.8 °F 21.0 °F 26.6 °F 75% 29.85 in 10.0 mi NW 25.3 mph 33.4 mph N/A   Clear
9:35 AM 33.8 °F 21.3 °F 26.6 °F 75% 29.86 in 10.0 mi WNW 24.2 mph 28.8 mph N/A   Partly Cloudy
9:55 AM 33.8 °F 22.2 °F 24.8 °F 70% 29.88 in 10.0 mi WNW 20.7 mph 33.4 mph N/A   Partly Cloudy
10:15 AM 35.6 °F 22.7 °F 24.8 °F 65% 29.89 in 10.0 mi WNW 28.8 mph 35.7 mph N/A   Partly Cloudy
10:35 AM 33.8 °F 21.3 °F 23.0 °F 65% 29.90 in 10.0 mi WNW 24.2 mph 35.7 mph N/A   Partly Cloudy
10:55 AM 32.0 °F 18.1 °F 23.0 °F 69% 29.92 in 10.0 mi West 27.6 mph 32.2 mph N/A   Partly Cloudy
11:15 AM 32.0 °F 17.6 °F 23.0 °F 69% 29.92 in 10.0 mi WNW 29.9 mph 36.8 mph N/A   Scattered Clouds
11:35 AM 32.0 °F 17.6 °F 21.2 °F 64% 29.92 in 10.0 mi WNW 29.9 mph 38.0 mph N/A   Partly Cloudy
11:55 AM 32.0 °F 20.1 °F 21.2 °F 64% 29.93 in 10.0 mi WNW 19.6 mph 31.1 mph N/A   Partly Cloudy
12:15 PM 33.8 °F 21.3 °F 23.0 °F 65% 29.93 in 10.0 mi West 24.2 mph 32.2 mph N/A   Mostly Cloudy
12:35 PM 35.6 °F 22.5 °F 21.2 °F 56% 29.92 in 10.0 mi WNW 29.9 mph 34.5 mph N/A   Scattered Clouds
12:55 PM 32.0 °F 17.9 °F 19.4 °F 60% 29.92 in 10.0 mi WNW 28.8 mph 39.1 mph N/A   Scattered Clouds
1:15 PM 32.0 °F 18.4 °F 17.6 °F 55% 29.95 in 10.0 mi WNW 26.5 mph 39.1 mph N/A   Scattered Clouds
1:35 PM 32.0 °F 17.9 °F 17.6 °F 55% 29.96 in 10.0 mi West 28.8 mph 35.7 mph N/A   Partly Cloudy
1:55 PM 32.0 °F 17.6 °F 17.6 °F 55% 29.97 in 10.0 mi WNW 29.9 mph 38.0 mph N/A   Scattered Clouds
2:15 PM 30.2 °F 15.2 °F 15.8 °F 55% 29.98 in 10.0 mi WNW 29.9 mph 34.5 mph N/A   Scattered Clouds
2:35 PM 28.4 °F 13.0 °F 15.8 °F 59% 29.99 in 10.0 mi West 28.8 mph 35.7 mph N/A   Partly Cloudy
2:55 PM 28.4 °F 12.3 °F 14.0 °F 55% 30.00 in 10.0 mi WNW 32.2 mph 40.3 mph N/A   Scattered Clouds
3:15 PM 28.4 °F 14.1 °F 14.0 °F 55% 30.01 in 10.0 mi West 24.2 mph 34.5 mph N/A   Mostly Cloudy
3:35 PM 28.4 °F 13.5 °F 14.0 °F 55% 30.02 in 10.0 mi WNW 26.5 mph 39.1 mph N/A   Mostly Cloudy
3:55 PM 28.4 °F 13.0 °F 12.2 °F 51% 30.03 in 10.0 mi WNW 28.8 mph 38.0 mph N/A   Mostly Cloudy
4:15 PM 28.4 °F 14.4 °F 14.0 °F 55% 30.04 in 10.0 mi West 23.0 mph 29.9 mph N/A   Mostly Cloudy
4:35 PM 28.4 °F 14.1 °F 14.0 °F 55% 30.05 in 10.0 mi WNW 24.2 mph 31.1 mph N/A   Overcast
4:55 PM 28.4 °F 13.3 °F 14.0 °F 55% 30.05 in 10.0 mi West 27.6 mph 34.5 mph N/A   Mostly Cloudy
5:15 PM 26.6 °F 12.4 °F 14.0 °F 59% 30.06 in 10.0 mi West 21.9 mph 32.2 mph N/A   Overcast
5:35 PM 26.6 °F 11.4 °F 15.8 °F 64% 30.07 in 10.0 mi West 25.3 mph 32.2 mph N/A   Overcast
5:55 PM 26.6 °F 10.6 °F 17.6 °F 69% 30.08 in 10.0 mi West 28.8 mph 35.7 mph N/A Rain Light Freezing Rain
6:15 PM 26.6 °F 11.7 °F 17.6 °F 69% 30.08 in 10.0 mi West 24.2 mph 31.1 mph N/A Rain Light Freezing Rain
6:35 PM 26.6 °F 12.4 °F 15.8 °F 64% 30.09 in 10.0 mi West 21.9 mph 33.4 mph N/A Rain Light Freezing Rain
6:55 PM 24.8 °F 9.6 °F 14.0 °F 64% 30.10 in 10.0 mi WNW 23.0 mph 35.7 mph N/A   Overcast
7:15 PM 24.8 °F 9.6 °F 14.0 °F 64% 30.10 in 10.0 mi West 23.0 mph 29.9 mph N/A   Overcast
7:35 PM 24.8 °F 10.3 °F 14.0 °F 64% 30.10 in 10.0 mi WNW 20.7 mph 29.9 mph N/A   Overcast
7:55 PM 24.8 °F 7.9 °F 14.0 °F 64% 30.10 in 10.0 mi West 29.9 mph 35.7 mph N/A   Mostly Cloudy
8:15 PM 24.8 °F 8.7 °F 14.0 °F 64% 30.10 in 10.0 mi WNW 26.5 mph 32.2 mph N/A   Mostly Cloudy
8:35 PM 24.8 °F 10.7 °F 12.2 °F 59% 30.10 in 10.0 mi WNW 19.6 mph 27.6 mph N/A   Mostly Cloudy
8:55 PM 24.8 °F 11.1 °F 12.2 °F 59% 30.11 in 10.0 mi WNW 18.4 mph 32.2 mph N/A   Overcast
9:15 PM 23.0 °F 7.2 °F 12.2 °F 63% 30.11 in 10.0 mi WNW 23.0 mph 31.1 mph N/A   Overcast
9:35 PM 23.0 °F 9.2 °F 10.4 °F 59% 30.11 in 10.0 mi WNW 17.3 mph - N/A   Mostly Cloudy
9:55 PM 23.0 °F 8.3 °F 10.4 °F 59% 30.11 in 10.0 mi WNW 19.6 mph 26.5 mph N/A   Scattered Clouds
10:15 PM 23.0 °F 8.3 °F 10.4 °F 59% 30.11 in 10.0 mi WNW 19.6 mph 29.9 mph N/A   Partly Cloudy
10:35 PM 21.2 °F 4.2 °F 10.4 °F 63% 30.11 in 10.0 mi WNW 25.3 mph 31.1 mph N/A   Scattered Clouds
10:55 PM 21.2 °F 7.3 °F 12.2 °F 68% 30.13 in 10.0 mi NW 16.1 mph 25.3 mph N/A   Scattered Clouds
11:15 PM 19.4 °F 3.6 °F 10.4 °F 68% 30.13 in 10.0 mi NW 19.6 mph 26.5 mph N/A   Partly Cloudy
11:35 PM 19.4 °F 4.1 °F 10.4 °F 68% 30.12 in 10.0 mi WNW 18.4 mph 26.5 mph N/A   Clear
11:55 PM 19.4 °F 3.2 °F 10.4 °F 68% 30.12 in 10.0 mi NW 20.7 mph 27.6 mph N/A   Scattered Clouds